Find Syracuse 4A

NORAD ID: 49333 Int'l Des: 2021-095 Owner: DGA Country: F operational
HEOCIRCULARGSOGEO

現在のビュー

3D地球を読み込み中...

About Syracuse 4A

Syracuse 4A (NORAD 49333) is a satellite launched Oct 24, 2021 by DGA of F. It operates in HEO, CIRCULAR, GSO, GEO orbit with a mass of 3852.00 kg.

次回通過

Passes for default location (London). Set your location on the main map for personalized predictions.

高度履歴

Loading altitude history...

軌道要素

1 49333U 21095B 26194.42736331 .00000000 00000-0 00000+0 0 9999
2 49333 0.0270 55.9116 0001479 51.2438 23.5099 1.00269771 18217
Epoch: Jul 13, 2026 • Age: 29 hours

現在のステータス

高度 35787.6 km
遠地点 / 近地点 N/A
速度 3.07 km/s
衛星直下点 0.02°N, 45.53°E
打ち上げ日 Oct 24, 2021
運用期間 4.7 years
タイプ other

技術仕様

分類 Payload
質量 3852.00 kg
乾燥質量 3200.00 kg
総質量 3852.00 kg
長さ 5.00 m
直径 2.50 m
スパン 30.00 m
形状 Box + 2 Pan
製造者 THALES
バスタイプ Spacebus NEO100
フェーズステータス In Orbit
所有者/国 DGA/F

Most Searched